EXS456 EGNM-LICR

Flight info

Callsign EXS456
Flight time 2h 52m
Altitude 35000
Route DOPEK DCT NISBI DCT OTBED Y70 ABTOS N110 DOLAS L603 LAMSO DCT EVELI DCT PAM L620 ARNEM DCT PODIP DCT BOMBI T721 SUNEG/N0457F370 L607 UTABA M738 NATAG DCT BORMI DCT LUMAV DCT GAVRA DCT PEMAR DCT NEKPI DCT PNZ DCT PIGER
Aircraft B738/M-SDE2E3FGHIRWXY/LB1

Departure

Time 2026-05-04 13:08
Airport Leeds Bradford Airport (EGNM)

Arrival

Time 2026-05-04 16:00
Airport Reggio Calabria Airport (LICR)
Time Latitude Longitude Altitude Speed Heading
2026-05-04 12:33 53.86854 -1.65899 664 ft 0 kts
2026-05-04 12:56 53.86839 -1.65900 664 ft 4 kts
2026-05-04 12:56 53.86817 -1.65897 664 ft 4 kts 311°
2026-05-04 12:56 53.86810 -1.65868 660 ft 3 kts 271°
2026-05-04 12:56 53.86810 -1.65843 664 ft 1 kts 271°
2026-05-04 13:00 53.86810 -1.65846 664 ft 2 kts 271°
2026-05-04 13:00 53.86810 -1.65875 662 ft 3 kts 271°
2026-05-04 13:00 53.86811 -1.65910 664 ft 3 kts 271°
2026-05-04 13:01 53.86812 -1.65959 665 ft 5 kts 271°
2026-05-04 13:01 53.86811 -1.66031 665 ft 7 kts 256°
2026-05-04 13:01 53.86774 -1.66063 667 ft 7 kts 167°
2026-05-04 13:01 53.86747 -1.66007 667 ft 6 kts 103°
2026-05-04 13:02 53.86744 -1.65926 667 ft 8 kts 92°
2026-05-04 13:02 53.86742 -1.65801 666 ft 14 kts 91°
2026-05-04 13:02 53.86740 -1.65610 664 ft 17 kts 91°
2026-05-04 13:02 53.86727 -1.65445 661 ft 13 kts 134°
2026-05-04 13:03 53.86642 -1.65423 661 ft 13 kts 184°
2026-05-04 13:03 53.86553 -1.65434 666 ft 13 kts 184°
2026-05-04 13:03 53.86467 -1.65443 669 ft 12 kts 184°
2026-05-04 13:03 53.86412 -1.65446 673 ft 12 kts 181°
2026-05-04 13:04 53.86329 -1.65453 678 ft 12 kts 184°
2026-05-04 13:04 53.86249 -1.65464 679 ft 11 kts 184°
2026-05-04 13:04 53.86177 -1.65421 679 ft 11 kts 139°
2026-05-04 13:04 53.86129 -1.65343 679 ft 11 kts 136°
2026-05-04 13:05 53.86072 -1.65254 676 ft 12 kts 138°
2026-05-04 13:05 53.86002 -1.65149 672 ft 14 kts 139°
2026-05-04 13:05 53.85928 -1.65039 666 ft 17 kts 139°
2026-05-04 13:05 53.85882 -1.64985 663 ft 7 kts 164°
2026-05-04 13:06 53.85864 -1.64966 662 ft 1 kts 92°
2026-05-04 13:06 53.85872 -1.64961 663 ft 1 kts 12°
2026-05-04 13:06 53.85880 -1.64971 661 ft 1 kts 327°
2026-05-04 13:06 53.85888 -1.64980 663 ft 1 kts 326°
2026-05-04 13:07 53.85902 -1.64999 664 ft 6 kts 319°
2026-05-04 13:07 53.86091 -1.65291 677 ft 78 kts 317°
2026-05-04 13:07 53.86700 -1.66231 668 ft 156 kts 318°
2026-05-04 13:07 53.87562 -1.67582 1270 ft 178 kts 314°
2026-05-04 13:08 53.88449 -1.69169 2251 ft 189 kts 311°
2026-05-04 13:08 53.89319 -1.70902 3195 ft 202 kts 310°
2026-05-04 13:08 53.90138 -1.72958 3407 ft 226 kts 288°
2026-05-04 13:08 53.90088 -1.75689 3697 ft 238 kts 255°
2026-05-04 13:09 53.89600 -1.78399 4173 ft 244 kts 241°
2026-05-04 13:09 53.88428 -1.80401 4749 ft 245 kts 210°
2026-05-04 13:09 53.86796 -1.81279 5285 ft 249 kts 184°
2026-05-04 13:09 53.85040 -1.80894 5647 ft 265 kts 161°
2026-05-04 13:10 53.83383 -1.79461 6229 ft 273 kts 140°
2026-05-04 13:10 53.82002 -1.77235 6858 ft 277 kts 136°
2026-05-04 13:10 53.80608 -1.74986 7028 ft 276 kts 137°
2026-05-04 13:10 53.79200 -1.72762 7039 ft 278 kts 137°
2026-05-04 13:11 53.77774 -1.70534 7049 ft 279 kts 137°
2026-05-04 13:11 53.76349 -1.68314 7056 ft 278 kts 138°
2026-05-04 13:11 53.74921 -1.66097 7069 ft 280 kts 138°
2026-05-04 13:11 53.73471 -1.63853 7428 ft 285 kts 138°
2026-05-04 13:12 53.72013 -1.61595 8250 ft 283 kts 138°
2026-05-04 13:12 53.70557 -1.59341 8960 ft 286 kts 138°
2026-05-04 13:12 53.69549 -1.57784 9413 ft 289 kts 138°
2026-05-04 13:12 53.68657 -1.56407 9823 ft 291 kts 138°
2026-05-04 13:13 53.67126 -1.54045 10346 ft 301 kts 139°
2026-05-04 13:13 53.65525 -1.51582 10500 ft 322 kts 139°
2026-05-04 13:13 53.63815 -1.48956 10665 ft 342 kts 139°
2026-05-04 13:13 53.62009 -1.46182 10803 ft 361 kts 139°
2026-05-04 13:14 53.60108 -1.43264 11048 ft 375 kts 139°
2026-05-04 13:14 53.58163 -1.40278 11539 ft 381 kts 139°
2026-05-04 13:14 53.56223 -1.37302 12161 ft 383 kts 139°
2026-05-04 13:14 53.54250 -1.34279 12817 ft 385 kts 139°
2026-05-04 13:15 53.52251 -1.31225 13444 ft 389 kts 139°
2026-05-04 13:15 53.50237 -1.28150 14051 ft 392 kts 138°
2026-05-04 13:15 53.48360 -1.24787 14639 ft 397 kts 129°
2026-05-04 13:15 53.46798 -1.20944 15279 ft 400 kts 120°
2026-05-04 13:16 53.45538 -1.16767 15897 ft 402 kts 116°
2026-05-04 13:16 53.44314 -1.12522 16478 ft 405 kts 116°
2026-05-04 13:16 53.43072 -1.08245 17061 ft 409 kts 117°
2026-05-04 13:16 53.41830 -1.04017 17615 ft 411 kts 117°
2026-05-04 13:17 53.40551 -0.99702 18128 ft 416 kts 117°
2026-05-04 13:17 53.39249 -0.95339 18606 ft 420 kts 117°
2026-05-04 13:17 53.38113 -0.90822 19110 ft 423 kts 104°
2026-05-04 13:17 53.37625 -0.85967 19660 ft 423 kts 98°
2026-05-04 13:18 53.37238 -0.81065 20146 ft 426 kts 98°
2026-05-04 13:18 53.36818 -0.76144 20642 ft 428 kts 98°
2026-05-04 13:18 53.36356 -0.71210 21145 ft 429 kts 99°
2026-05-04 13:18 53.35874 -0.66274 21656 ft 430 kts 99°
2026-05-04 13:19 53.35382 -0.61324 22128 ft 432 kts 99°
2026-05-04 13:19 53.34883 -0.56343 22575 ft 434 kts 99°
2026-05-04 13:19 53.34383 -0.51349 22995 ft 437 kts 99°
2026-05-04 13:19 53.33884 -0.46380 23425 ft 439 kts 99°
2026-05-04 13:20 53.33368 -0.41257 23832 ft 441 kts 99°
2026-05-04 13:20 53.32856 -0.36194 24201 ft 442 kts 99°
2026-05-04 13:20 53.32357 -0.31274 24558 ft 443 kts 99°
2026-05-04 13:20 53.31872 -0.26515 24879 ft 444 kts 99°
2026-05-04 13:21 53.31349 -0.21407 25223 ft 446 kts 98°
2026-05-04 13:21 53.30825 -0.16307 25528 ft 446 kts 98°
2026-05-04 13:21 53.30296 -0.11182 25774 ft 448 kts 98°
2026-05-04 13:21 53.29764 -0.06042 26005 ft 450 kts 98°
2026-05-04 13:22 53.29225 -0.00860 26237 ft 451 kts 99°
2026-05-04 13:22 53.28684 0.04316 26378 ft 455 kts 99°
2026-05-04 13:22 53.28135 0.09530 26574 ft 456 kts 99°
2026-05-04 13:22 53.27583 0.14764 26840 ft 457 kts 99°
2026-05-04 13:23 53.27029 0.19994 27096 ft 457 kts 99°
2026-05-04 13:23 53.26475 0.25223 27307 ft 458 kts 99°
2026-05-04 13:23 53.25914 0.30479 27507 ft 460 kts 99°
2026-05-04 13:23 53.25341 0.35741 27741 ft 460 kts 101°
2026-05-04 13:24 53.24464 0.40789 28000 ft 460 kts 111°
2026-05-04 13:24 53.23108 0.45637 28211 ft 462 kts 118°
2026-05-04 13:24 53.21331 0.50092 28543 ft 461 kts 127°
2026-05-04 13:25 53.17363 0.58480 28976 ft 463 kts 128°
2026-05-04 13:25 53.15366 0.62712 29182 ft 464 kts 128°
2026-05-04 13:25 53.13389 0.66935 29588 ft 460 kts 128°
2026-05-04 13:25 53.11429 0.71140 29908 ft 459 kts 128°
2026-05-04 13:26 53.09470 0.75352 30142 ft 460 kts 127°
2026-05-04 13:26 53.07514 0.79556 30422 ft 458 kts 128°
2026-05-04 13:26 53.05566 0.83738 30652 ft 457 kts 127°
2026-05-04 13:26 53.03615 0.87915 30945 ft 455 kts 128°
2026-05-04 13:27 53.01672 0.92067 31119 ft 457 kts 128°
2026-05-04 13:27 52.99769 0.96308 31291 ft 458 kts 123°
2026-05-04 13:27 52.97146 1.05972 31353 ft 469 kts 107°
2026-05-04 13:28 52.96450 1.11354 31483 ft 472 kts 102°
2026-05-04 13:28 52.95865 1.16638 31776 ft 470 kts 102°
2026-05-04 13:28 52.95288 1.21964 32120 ft 467 kts 102°
2026-05-04 13:28 52.94707 1.27252 32398 ft 465 kts 102°
2026-05-04 13:29 52.94112 1.32532 32621 ft 465 kts 102°
2026-05-04 13:29 52.93505 1.37792 32827 ft 465 kts 102°
2026-05-04 13:29 52.92887 1.43057 33074 ft 464 kts 102°
2026-05-04 13:29 52.92266 1.48296 33346 ft 463 kts 102°
2026-05-04 13:30 52.91642 1.53523 33572 ft 462 kts 103°
2026-05-04 13:30 52.91011 1.58777 33592 ft 467 kts 103°
2026-05-04 13:30 52.89736 1.69356 33955 ft 467 kts 103°
2026-05-04 13:31 52.89099 1.74618 34237 ft 464 kts 103°
2026-05-04 13:31 52.88471 1.79786 34408 ft 464 kts 103°
2026-05-04 13:31 52.87829 1.85054 34525 ft 466 kts 103°
2026-05-04 13:31 52.87185 1.90311 34662 ft 466 kts 103°
2026-05-04 13:32 52.86538 1.95568 34850 ft 465 kts 103°
2026-05-04 13:32 52.85896 2.00769 35034 ft 465 kts 103°
2026-05-04 13:32 52.84846 2.09230 35033 ft 470 kts 104°
2026-05-04 13:33 52.83643 2.18857 35025 ft 471 kts 104°
2026-05-04 13:33 52.82312 2.29452 35032 ft 470 kts 104°
2026-05-04 13:34 52.80975 2.40012 35035 ft 469 kts 104°
2026-05-04 13:34 52.79631 2.50541 35028 ft 468 kts 104°
2026-05-04 13:35 52.77596 2.66251 35024 ft 468 kts 105°
2026-05-04 13:36 52.76226 2.76751 35022 ft 469 kts 105°
2026-05-04 13:36 52.74857 2.87301 35025 ft 470 kts 105°
2026-05-04 13:37 52.73502 2.97821 35029 ft 471 kts 105°
2026-05-04 13:37 52.71427 3.07985 35020 ft 467 kts 116°
2026-05-04 13:38 52.68962 3.17931 35016 ft 469 kts 116°
2026-05-04 13:38 52.66550 3.27956 35020 ft 471 kts 115°
2026-05-04 13:39 52.64158 3.38044 35018 ft 473 kts 114°
2026-05-04 13:39 52.62175 3.48436 35018 ft 477 kts 109°
2026-05-04 13:40 52.60442 3.58970 35007 ft 478 kts 109°
2026-05-04 13:40 52.58682 3.69522 35008 ft 478 kts 109°
2026-05-04 13:41 52.56867 3.80052 35001 ft 479 kts 110°
2026-05-04 13:41 52.55024 3.90568 35002 ft 479 kts 110°
2026-05-04 13:42 52.52241 4.06330 34988 ft 479 kts 110°
2026-05-04 13:42 52.50373 4.16840 34998 ft 479 kts 110°
2026-05-04 13:43 52.48499 4.27332 34996 ft 479 kts 110°
2026-05-04 13:43 52.46624 4.37764 34996 ft 480 kts 110°
2026-05-04 13:44 52.44725 4.48273 34995 ft 481 kts 111°
2026-05-04 13:44 52.42815 4.58787 34986 ft 480 kts 111°
2026-05-04 13:45 52.40899 4.69263 34991 ft 480 kts 111°
2026-05-04 13:45 52.38976 4.79721 34993 ft 479 kts 111°
2026-05-04 13:46 52.37051 4.90139 34995 ft 478 kts 111°
2026-05-04 13:46 52.35444 4.98788 34976 ft 477 kts 112°
2026-05-04 13:47 52.33503 5.09153 34994 ft 476 kts 113°
2026-05-04 13:47 52.31206 5.19254 34988 ft 472 kts 117°
2026-05-04 13:48 52.28741 5.29205 34983 ft 472 kts 117°
2026-05-04 13:48 52.26321 5.39142 34989 ft 473 kts 116°
2026-05-04 13:49 52.23913 5.49131 34984 ft 473 kts 117°
2026-05-04 13:49 52.21487 5.59133 35002 ft 475 kts 117°
2026-05-04 13:50 52.19044 5.69179 34962 ft 478 kts 117°
2026-05-04 13:50 52.16590 5.79241 34969 ft 478 kts 117°
2026-05-04 13:51 52.14128 5.89295 34971 ft 478 kts 117°
2026-05-04 13:51 52.11658 5.99334 34961 ft 477 kts 117°
2026-05-04 13:52 52.08638 6.08711 34966 ft 465 kts 132°
2026-05-04 13:52 52.06567 6.12704 34954 ft 457 kts 141°
2026-05-04 13:53 52.01976 6.19782 34966 ft 454 kts 143°
2026-05-04 13:53 51.97374 6.26809 34968 ft 454 kts 142°
2026-05-04 13:54 51.90506 6.37402 34960 ft 455 kts 142°
2026-05-04 13:55 51.83640 6.48012 34974 ft 454 kts 142°
2026-05-04 13:55 51.76815 6.58515 34972 ft 452 kts 142°
2026-05-04 13:56 51.72247 6.65515 34977 ft 452 kts 142°
2026-05-04 13:57 51.65406 6.75957 34983 ft 451 kts 143°
2026-05-04 13:58 51.56292 6.89800 34985 ft 450 kts 143°
2026-05-04 13:58 51.49451 7.00138 34983 ft 451 kts 143°
2026-05-04 13:59 51.44899 7.06993 34986 ft 452 kts 143°
2026-05-04 14:00 51.38010 7.17329 34970 ft 453 kts 142°
2026-05-04 14:00 51.31103 7.27656 34964 ft 453 kts 143°
2026-05-04 14:01 51.26491 7.34514 34969 ft 453 kts 143°
2026-05-04 14:02 51.19598 7.44737 34975 ft 452 kts 143°
2026-05-04 14:02 51.14983 7.51560 34970 ft 453 kts 143°
2026-05-04 14:03 51.10334 7.58411 34979 ft 453 kts 143°
2026-05-04 14:03 51.05736 7.65169 34980 ft 452 kts 142°
2026-05-04 14:04 50.98793 7.75340 34976 ft 453 kts 142°
2026-05-04 14:04 50.94141 7.82097 34978 ft 452 kts 145°
2026-05-04 14:05 50.86580 7.90829 34993 ft 448 kts 150°
2026-05-04 14:06 50.81459 7.96452 34996 ft 448 kts 150°
2026-05-04 14:06 50.76351 8.02134 34988 ft 449 kts 150°
2026-05-04 14:07 50.71248 8.07849 34996 ft 450 kts 150°
2026-05-04 14:07 50.66140 8.13564 34994 ft 451 kts 150°
2026-05-04 14:08 50.61047 8.19245 34984 ft 452 kts 150°
2026-05-04 14:08 50.55906 8.24963 34984 ft 452 kts 150°
2026-05-04 14:09 50.48185 8.33522 34982 ft 452 kts 150°
2026-05-04 14:10 50.40462 8.42046 34974 ft 452 kts 150°
2026-05-04 14:10 50.35325 8.47696 34978 ft 452 kts 151°
2026-05-04 14:11 50.29794 8.51781 34975 ft 437 kts 169°
2026-05-04 14:11 50.20996 8.55659 34970 ft 437 kts 169°
2026-05-04 14:12 50.15147 8.58274 34970 ft 437 kts 168°
2026-05-04 14:13 50.06668 8.62117 34961 ft 437 kts 168°
2026-05-04 14:13 50.00840 8.64761 34969 ft 436 kts 168°
2026-05-04 14:14 49.96178 8.66872 34969 ft 437 kts 168°
2026-05-04 14:14 49.87976 8.70570 34987 ft 437 kts 168°
2026-05-04 14:15 49.76313 8.75811 34987 ft 437 kts 168°
2026-05-04 14:16 49.67540 8.79735 34982 ft 437 kts 168°
2026-05-04 14:17 49.58769 8.83642 34984 ft 437 kts 168°
2026-05-04 14:18 49.49998 8.87536 34988 ft 437 kts 168°
2026-05-04 14:19 49.38358 8.92681 34981 ft 437 kts 168°
2026-05-04 14:19 49.32512 8.95254 34985 ft 437 kts 168°
2026-05-04 14:20 49.26652 8.97827 34984 ft 439 kts 168°
2026-05-04 14:20 49.20767 9.00406 34974 ft 440 kts 168°
2026-05-04 14:21 49.11952 9.04256 34975 ft 441 kts 168°
2026-05-04 14:21 49.06034 9.06834 34974 ft 442 kts 168°
2026-05-04 14:22 49.00100 9.09412 34973 ft 443 kts 168°
2026-05-04 14:22 48.94179 9.11978 34963 ft 443 kts 168°
2026-05-04 14:23 48.85290 9.15818 34967 ft 443 kts 168°
2026-05-04 14:24 48.79360 9.18372 34965 ft 442 kts 168°
2026-05-04 14:24 48.73438 9.20916 34958 ft 442 kts 168°
2026-05-04 14:25 48.67556 9.23438 34967 ft 442 kts 168°
2026-05-04 14:25 48.58918 9.27400 34969 ft 444 kts 163°
2026-05-04 14:26 48.53132 9.30694 34971 ft 445 kts 162°
2026-05-04 14:26 48.47327 9.34014 34965 ft 446 kts 163°
2026-05-04 14:27 48.41515 9.37281 34959 ft 446 kts 163°
2026-05-04 14:27 48.35696 9.40528 34963 ft 446 kts 163°
2026-05-04 14:28 48.29909 9.43749 34960 ft 446 kts 163°
2026-05-04 14:28 48.24077 9.46893 34943 ft 444 kts 166°
2026-05-04 14:29 48.12205 9.51959 34958 ft 443 kts 167°
2026-05-04 14:30 48.06276 9.54511 34958 ft 443 kts 167°
2026-05-04 14:30 48.00555 9.57850 34957 ft 448 kts 153°
2026-05-04 14:31 47.97955 9.60448 34962 ft 451 kts 147°
2026-05-04 14:32 47.88698 9.70626 34952 ft 451 kts 147°
2026-05-04 14:32 47.83617 9.76126 34943 ft 451 kts 147°
2026-05-04 14:33 47.78525 9.81593 34951 ft 451 kts 147°
2026-05-04 14:33 47.73431 9.87043 34961 ft 451 kts 147°
2026-05-04 14:34 47.68338 9.92481 34963 ft 451 kts 147°
2026-05-04 14:34 47.63241 9.97911 34961 ft 451 kts 147°
2026-05-04 14:35 47.58143 10.03331 34970 ft 451 kts 147°
2026-05-04 14:35 47.53040 10.08742 34958 ft 451 kts 147°
2026-05-04 14:36 47.47968 10.14110 34976 ft 450 kts 147°
2026-05-04 14:36 47.42844 10.19445 34999 ft 449 kts 149°
2026-05-04 14:37 47.37520 10.24279 35000 ft 448 kts 152°
2026-05-04 14:37 47.32197 10.29073 35017 ft 449 kts 151°
2026-05-04 14:38 47.26879 10.33885 35019 ft 448 kts 151°
2026-05-04 14:38 47.21586 10.38650 35035 ft 448 kts 152°
2026-05-04 14:39 47.16258 10.43439 35043 ft 449 kts 151°
2026-05-04 14:39 47.10915 10.48231 35026 ft 451 kts 151°
2026-05-04 14:40 47.02591 10.54490 35042 ft 445 kts 166°
2026-05-04 14:40 46.96678 10.57033 35039 ft 446 kts 166°
2026-05-04 14:41 46.90730 10.59666 35035 ft 447 kts 165°
2026-05-04 14:42 46.79091 10.66235 35059 ft 450 kts 157°
2026-05-04 14:42 46.73452 10.70168 35049 ft 448 kts 157°
2026-05-04 14:43 46.67816 10.74033 35074 ft 446 kts 158°
2026-05-04 14:43 46.62180 10.77834 35071 ft 446 kts 158°
2026-05-04 14:44 46.56543 10.81612 35071 ft 446 kts 158°
2026-05-04 14:44 46.50927 10.85366 35077 ft 446 kts 158°
2026-05-04 14:45 46.45246 10.89158 35069 ft 447 kts 158°
2026-05-04 14:45 46.39633 10.92896 35170 ft 446 kts 158°
2026-05-04 14:46 46.33981 10.96652 35206 ft 446 kts 158°
2026-05-04 14:46 46.28326 11.00401 35211 ft 447 kts 158°
2026-05-04 14:47 46.22668 11.04145 35209 ft 447 kts 158°
2026-05-04 14:47 46.17002 11.07884 35178 ft 448 kts 158°
2026-05-04 14:48 46.11328 11.11622 35160 ft 448 kts 158°
2026-05-04 14:48 46.05642 11.15359 35125 ft 449 kts 158°
2026-05-04 14:49 45.99783 11.18336 35103 ft 445 kts 168°
2026-05-04 14:49 45.93815 11.20484 35080 ft 445 kts 169°
2026-05-04 14:50 45.87808 11.22641 35090 ft 445 kts 168°
2026-05-04 14:50 45.81762 11.24866 35073 ft 445 kts 168°
2026-05-04 14:51 45.75801 11.27082 35073 ft 446 kts 168°
2026-05-04 14:51 45.69790 11.29317 35064 ft 447 kts 168°
2026-05-04 14:52 45.63771 11.31550 35068 ft 447 kts 168°
2026-05-04 14:52 45.57747 11.33779 35053 ft 447 kts 168°
2026-05-04 14:53 45.51727 11.36001 35057 ft 447 kts 168°
2026-05-04 14:53 45.45694 11.38222 35058 ft 448 kts 168°
2026-05-04 14:54 45.39653 11.40441 35048 ft 448 kts 168°
2026-05-04 14:54 45.33579 11.42668 35048 ft 450 kts 168°
2026-05-04 14:55 45.27496 11.44893 35054 ft 452 kts 168°
2026-05-04 14:55 45.21424 11.47109 35057 ft 454 kts 168°
2026-05-04 14:56 45.15281 11.49346 35044 ft 456 kts 169°
2026-05-04 14:56 45.09115 11.51587 35055 ft 458 kts 169°
2026-05-04 14:57 45.02931 11.53829 35057 ft 459 kts 169°
2026-05-04 14:57 44.96740 11.56069 35049 ft 459 kts 169°
2026-05-04 14:58 44.90543 11.58307 35062 ft 460 kts 169°
2026-05-04 14:58 44.84343 11.60541 35059 ft 460 kts 169°
2026-05-04 14:59 44.78095 11.62472 35063 ft 458 kts 174°
2026-05-04 15:00 44.68670 11.64292 35055 ft 458 kts 176°
2026-05-04 15:00 44.62337 11.65506 35071 ft 459 kts 175°
2026-05-04 15:01 44.52847 11.67415 35074 ft 460 kts 175°
2026-05-04 15:01 44.46499 11.68705 35072 ft 460 kts 175°
2026-05-04 15:02 44.40153 11.69992 35078 ft 461 kts 175°
2026-05-04 15:02 44.33843 11.71266 35086 ft 461 kts 175°
2026-05-04 15:03 44.27488 11.72546 35084 ft 461 kts 176°
2026-05-04 15:03 44.21135 11.73823 35090 ft 462 kts 176°
2026-05-04 15:04 44.14773 11.75097 35097 ft 461 kts 176°
2026-05-04 15:04 44.08406 11.76372 35106 ft 461 kts 176°
2026-05-04 15:05 44.02045 11.77643 35085 ft 462 kts 176°
2026-05-04 15:05 43.95682 11.78911 35103 ft 462 kts 176°
2026-05-04 15:06 43.89353 11.80170 35112 ft 462 kts 176°
2026-05-04 15:07 43.79819 11.82038 35121 ft 461 kts 175°
2026-05-04 15:07 43.73636 11.84772 35105 ft 469 kts 164°
2026-05-04 15:08 43.67424 11.87449 35123 ft 466 kts 169°
2026-05-04 15:08 43.61147 11.89811 35116 ft 468 kts 169°
2026-05-04 15:09 43.54875 11.92258 35104 ft 469 kts 168°
2026-05-04 15:09 43.48593 11.94800 35108 ft 470 kts 168°
2026-05-04 15:10 43.39198 11.98644 35104 ft 471 kts 168°
2026-05-04 15:11 43.29767 12.02489 35101 ft 472 kts 169°
2026-05-04 15:11 43.23472 12.05046 35124 ft 472 kts 168°
2026-05-04 15:12 43.17162 12.07602 35105 ft 473 kts 169°
2026-05-04 15:12 43.10854 12.10152 35126 ft 474 kts 169°
2026-05-04 15:13 43.04520 12.12706 35133 ft 476 kts 169°
2026-05-04 15:13 42.98149 12.15270 35114 ft 478 kts 169°
2026-05-04 15:14 42.91760 12.17836 35128 ft 480 kts 169°
2026-05-04 15:14 42.85346 12.20407 35144 ft 481 kts 169°
2026-05-04 15:15 42.78913 12.22979 35146 ft 482 kts 170°
2026-05-04 15:15 42.72465 12.25552 35144 ft 484 kts 170°
2026-05-04 15:16 42.63852 12.28981 35148 ft 485 kts 170°
2026-05-04 15:17 42.53062 12.33264 35135 ft 485 kts 171°
2026-05-04 15:17 42.44421 12.36681 35137 ft 486 kts 171°
2026-05-04 15:18 42.37933 12.39241 35138 ft 485 kts 171°
2026-05-04 15:19 42.28248 12.43053 35135 ft 485 kts 170°
2026-05-04 15:19 42.18505 12.46870 35140 ft 487 kts 170°
2026-05-04 15:20 42.11981 12.49421 35138 ft 488 kts 170°
2026-05-04 15:20 42.05484 12.51955 35130 ft 489 kts 170°
2026-05-04 15:21 41.98939 12.54505 35134 ft 489 kts 170°
2026-05-04 15:22 41.89112 12.58322 35120 ft 490 kts 170°
2026-05-04 15:22 41.79302 12.62121 35159 ft 491 kts 170°
2026-05-04 15:23 41.72740 12.64655 35169 ft 491 kts 170°
2026-05-04 15:23 41.66166 12.67187 35151 ft 491 kts 170°
2026-05-04 15:24 41.53023 12.72236 35154 ft 491 kts 170°
2026-05-04 15:25 41.46457 12.74750 35130 ft 490 kts 170°
2026-05-04 15:26 41.36620 12.78506 35130 ft 490 kts 170°
2026-05-04 15:26 41.27109 12.82126 35134 ft 491 kts 170°
2026-05-04 15:27 41.17293 12.85851 35134 ft 491 kts 170°
2026-05-04 15:28 41.07421 12.89586 35131 ft 492 kts 170°
2026-05-04 15:29 40.97523 12.93321 35125 ft 493 kts 171°
2026-05-04 15:30 40.85170 13.01538 35141 ft 511 kts 146°
2026-05-04 15:30 40.76776 13.10272 35125 ft 511 kts 146°
2026-05-04 15:31 40.68377 13.18848 35128 ft 511 kts 147°
2026-05-04 15:32 40.54217 13.33089 35122 ft 513 kts 147°
2026-05-04 15:34 40.40049 13.47275 35129 ft 514 kts 147°
2026-05-04 15:34 40.31504 13.55795 35119 ft 515 kts 146°
2026-05-04 15:35 40.22937 13.64308 35137 ft 516 kts 146°
2026-05-04 15:36 40.14331 13.72833 35127 ft 517 kts 146°
2026-05-04 15:36 40.08589 13.78505 35131 ft 517 kts 146°
2026-05-04 15:37 40.02843 13.84170 35122 ft 517 kts 146°
2026-05-04 15:37 39.97132 13.89787 35120 ft 517 kts 146°
2026-05-04 15:38 39.91377 13.95434 35132 ft 517 kts 146°
2026-05-04 15:38 39.85623 14.01070 35135 ft 518 kts 146°
2026-05-04 15:39 39.79864 14.06698 35132 ft 518 kts 146°
2026-05-04 15:40 39.71218 14.15123 35128 ft 518 kts 146°
2026-05-04 15:40 39.65454 14.20727 35122 ft 518 kts 146°
2026-05-04 15:41 39.59671 14.26336 35133 ft 519 kts 146°
2026-05-04 15:41 39.53882 14.31938 35094 ft 519 kts 146°
2026-05-04 15:41 39.50967 14.34754 34503 ft 526 kts 146°
2026-05-04 15:42 39.48034 14.37584 33820 ft 526 kts 146°
2026-05-04 15:42 39.45141 14.40374 33119 ft 526 kts 146°
2026-05-04 15:42 39.42205 14.43203 32386 ft 525 kts 146°
2026-05-04 15:42 39.39265 14.46032 31642 ft 526 kts 146°
2026-05-04 15:43 39.36331 14.48852 30901 ft 526 kts 146°
2026-05-04 15:43 39.33388 14.51677 30100 ft 527 kts 145°
2026-05-04 15:43 39.30445 14.54500 29163 ft 528 kts 145°
2026-05-04 15:43 39.27492 14.57329 28276 ft 528 kts 145°
2026-05-04 15:44 39.24543 14.60152 27360 ft 527 kts 145°
2026-05-04 15:44 39.21593 14.62972 26422 ft 526 kts 145°
2026-05-04 15:44 39.19133 14.65323 25917 ft 519 kts 145°
2026-05-04 15:44 39.16362 14.67969 25259 ft 513 kts 145°
2026-05-04 15:45 39.13511 14.70687 24600 ft 506 kts 145°
2026-05-04 15:45 39.10704 14.73361 23949 ft 500 kts 145°
2026-05-04 15:45 39.07923 14.76005 23194 ft 494 kts 144°
2026-05-04 15:45 39.05175 14.78617 22488 ft 487 kts 144°
2026-05-04 15:46 39.02468 14.81187 21838 ft 480 kts 144°
2026-05-04 15:46 38.99799 14.83718 21169 ft 474 kts 144°
2026-05-04 15:46 38.97160 14.86219 20531 ft 468 kts 144°
2026-05-04 15:46 38.94557 14.88683 19895 ft 463 kts 144°
2026-05-04 15:47 38.92010 14.91092 19277 ft 458 kts 144°
2026-05-04 15:47 38.89456 14.93504 18660 ft 453 kts 144°
2026-05-04 15:47 38.86926 14.95893 17958 ft 450 kts 144°
2026-05-04 15:47 38.84439 14.98238 17299 ft 445 kts 144°
2026-05-04 15:48 38.81970 15.00565 16683 ft 439 kts 144°
2026-05-04 15:48 38.79523 15.02870 16060 ft 434 kts 144°
2026-05-04 15:48 38.74709 15.07397 14864 ft 424 kts 144°
2026-05-04 15:49 38.72337 15.09624 14276 ft 420 kts 144°
2026-05-04 15:49 38.70012 15.11806 13672 ft 415 kts 144°
2026-05-04 15:49 38.67693 15.13980 13059 ft 410 kts 144°
2026-05-04 15:49 38.65427 15.16103 12482 ft 405 kts 144°
2026-05-04 15:50 38.63193 15.18194 11966 ft 399 kts 144°
2026-05-04 15:50 38.60999 15.20247 11850 ft 383 kts 144°
2026-05-04 15:50 38.58884 15.22225 11685 ft 369 kts 144°
2026-05-04 15:50 38.56848 15.24127 11532 ft 357 kts 144°
2026-05-04 15:51 38.54870 15.25974 11388 ft 346 kts 144°
2026-05-04 15:51 38.52954 15.27761 11247 ft 336 kts 144°
2026-05-04 15:51 38.51091 15.29497 11094 ft 327 kts 144°
2026-05-04 15:51 38.49232 15.31199 10621 ft 330 kts 145°
2026-05-04 15:52 38.47348 15.32897 10172 ft 332 kts 145°
2026-05-04 15:52 38.45483 15.34571 10024 ft 316 kts 145°
2026-05-04 15:52 38.43742 15.36134 9960 ft 298 kts 145°
2026-05-04 15:52 38.42088 15.37620 9845 ft 283 kts 145°
2026-05-04 15:53 38.40504 15.39045 9772 ft 273 kts 145°
2026-05-04 15:53 38.38989 15.40406 9663 ft 260 kts 145°
2026-05-04 15:53 38.37551 15.41698 9585 ft 246 kts 145°
2026-05-04 15:53 38.36183 15.42927 9419 ft 238 kts 145°
2026-05-04 15:54 38.34857 15.44118 9101 ft 235 kts 145°
2026-05-04 15:54 38.33520 15.45319 8726 ft 235 kts 146°
2026-05-04 15:54 38.32183 15.46520 8333 ft 235 kts 146°
2026-05-04 15:54 38.30854 15.47712 7996 ft 233 kts 146°
2026-05-04 15:55 38.29509 15.48918 7373 ft 242 kts 146°
2026-05-04 15:55 38.28118 15.50165 6734 ft 246 kts 146°
2026-05-04 15:55 38.26699 15.51435 6064 ft 251 kts 146°
2026-05-04 15:55 38.25266 15.52716 5394 ft 253 kts 146°
2026-05-04 15:56 38.23812 15.54018 4721 ft 254 kts 146°
2026-05-04 15:56 38.22566 15.55121 4124 ft 249 kts 147°
2026-05-04 15:56 38.21075 15.56167 3562 ft 239 kts 153°
2026-05-04 15:56 38.19650 15.57070 3362 ft 217 kts 153°
2026-05-04 15:57 38.18354 15.57881 3178 ft 200 kts 153°
2026-05-04 15:57 38.17164 15.58635 2910 ft 185 kts 153°
2026-05-04 15:57 38.16060 15.59342 2635 ft 171 kts 153°
2026-05-04 15:57 38.15032 15.60004 2279 ft 161 kts 152°
2026-05-04 15:58 38.14060 15.60632 1935 ft 151 kts 152°
2026-05-04 15:58 38.13147 15.61222 1505 ft 146 kts 151°
2026-05-04 15:58 38.12256 15.61800 1095 ft 141 kts 153°
2026-05-04 15:58 38.11402 15.62354 848 ft 135 kts 154°
2026-05-04 15:59 38.10579 15.62892 603 ft 132 kts 154°
2026-05-04 15:59 38.09742 15.63463 505 ft 140 kts 154°
2026-05-04 15:59 38.08858 15.64041 363 ft 145 kts 155°
2026-05-04 15:59 38.07947 15.64627 145 ft 148 kts 156°
2026-05-04 16:00 38.07071 15.65188 46 ft 128 kts 153°
2026-05-04 16:00 38.06634 15.65470 43 ft 26 kts 150°
2026-05-04 16:00 38.06511 15.65583 44 ft 19 kts 119°
2026-05-04 16:00 38.06462 15.65643 46 ft 8 kts 192°
2026-05-04 16:01 38.06461 15.65589 44 ft 8 kts 317°
2026-05-04 16:01 38.06513 15.65551 43 ft 9 kts 332°
2026-05-04 16:01 38.06572 15.65512 42 ft 11 kts 333°
2026-05-04 16:01 38.06648 15.65462 43 ft 12 kts 333°
2026-05-04 16:02 38.06721 15.65415 42 ft 12 kts 332°
2026-05-04 16:02 38.06796 15.65366 41 ft 12 kts 333°
2026-05-04 16:02 38.06944 15.65267 44 ft 12 kts 330°
2026-05-04 16:03 38.07015 15.65221 43 ft 11 kts 333°
2026-05-04 16:03 38.07085 15.65177 47 ft 11 kts 333°
2026-05-04 16:03 38.07130 15.65148 48 ft 11 kts 333°
2026-05-04 16:03 38.07197 15.65105 48 ft 11 kts 332°
2026-05-04 16:04 38.07264 15.65079 51 ft 10 kts 14°
2026-05-04 16:04 38.07333 15.65212 59 ft 7 kts 63°
2026-05-04 16:04 38.07353 15.65263 62 ft 5 kts 62°
2026-05-04 16:05 38.07359 15.65279 58 ft 2 kts 76°
2026-05-04 16:05 38.07357 15.65298 62 ft 2 kts 102°
2026-05-04 16:05 38.07355 15.65305 62 ft 0 kts 106°